Greenville, SC

10:20 PM EDT on March 23, 2017 (GMT -0400)
Donaldson Center

Weather History for KGYH - August, 2014

Change the Weather History Date:

Thursday, August 14, 2014

  Actual Average (KGMU) Record (KGMU)
Temperature  
Mean Temperature 73 °F -  
Max Temperature 82 °F 86 °F 100 °F (1999)
Min Temperature 64 °F 68 °F 64 °F (1992)
Cooling Degree Days 8    
Growing Degree Days 23 (Base 50)    
Moisture  
Dew Point 61 °F    
Average Humidity 71    
Maximum Humidity 88    
Minimum Humidity 45    
Precipitation  
Precipitation 0.00 in - - ()
Sea Level Pressure  
Sea Level Pressure 30.03 in    
Wind  
Wind Speed 4 mph (ENE)    
Max Wind Speed 7 mph    
Max Gust Speed -    
Visibility 10 miles    
Events      
Averages and records for this station are not official NWS values.
T = Trace of Precipitation, MM = Missing Value Source: NWS Daily Summary

Daily Weather History Graph

Daily Weather History Graph

Search for Another Location

Airport or City:

Trip Planner

Search our weather history database for the weather conditions in past years. The results will help you decide how hot, cold, wet, or windy it might be!

Date:

Astronomy

Aug. 14, 2014 Rise Set
Actual Time 6:49 AM EDT 8:18 PM EDT
Civil Twilight 6:22 AM EDT 8:45 PM EDT
Nautical Twilight 5:50 AM EDT 9:17 PM EDT
Astronomical Twilight 5:16 AM EDT 9:50 PM EDT
Moon 10:55 PM EDT (8/14) 11:11 AM EDT (8/14)
Length of Visible Light 14h 22m
Length of Day
13h 29m
Waning Gibbous, 79% of the Moon is Illuminated
Aug 14
Waning Gibbous
Aug 17
Last Quarter
Aug 25
New
Sep 2
First Quarter
Sep 8
Full

Hourly Weather History & Observations

Time (EDT) Temp. Heat Index Dew Point Humidity Pressure Visibility Wind Dir Wind Speed Gust Speed Precip Events Conditions
12:35 AM 71.6 °F - 59.0 °F 64% 30.03 in 10.0 mi NNE 4.6 mph - N/A   Overcast
12:55 AM 71.6 °F - 59.0 °F 64% 30.03 in 10.0 mi NNE 4.6 mph - N/A   Overcast
1:15 AM 71.6 °F - 59.0 °F 64% 30.03 in 10.0 mi NE 4.6 mph - N/A   Overcast
1:55 AM 69.8 °F - 60.8 °F 73% 30.01 in 10.0 mi NE 5.8 mph - N/A   Mostly Cloudy
2:15 AM 68.0 °F - 60.8 °F 78% 30.01 in 10.0 mi NE 4.6 mph - N/A   Scattered Clouds
2:35 AM 68.0 °F - 60.8 °F 78% 30.02 in 10.0 mi ENE 5.8 mph - N/A   Clear
2:55 AM 68.0 °F - 60.8 °F 78% 30.03 in 10.0 mi ENE 4.6 mph - N/A   Clear
3:15 AM 66.2 °F - 60.8 °F 83% 30.02 in 10.0 mi ENE 4.6 mph - N/A   Clear
3:35 AM 68.0 °F - 60.8 °F 78% 30.01 in 10.0 mi NE 6.9 mph - N/A   Clear
3:55 AM 68.0 °F - 59.0 °F 73% 30.01 in 10.0 mi NE 4.6 mph - N/A   Clear
4:15 AM 68.0 °F - 59.0 °F 73% 30.03 in 10.0 mi NE 4.6 mph - N/A   Clear
4:35 AM 66.2 °F - 59.0 °F 78% 30.03 in 10.0 mi ENE 5.8 mph - N/A   Clear
4:55 AM 64.4 °F - 60.8 °F 88% 30.03 in 10.0 mi ENE 3.5 mph - N/A   Clear
5:15 AM 64.4 °F - 59.0 °F 83% 30.03 in 10.0 mi ENE 3.5 mph - N/A   Clear
5:35 AM 64.4 °F - 59.0 °F 83% 30.03 in 10.0 mi NE 3.5 mph - N/A   Clear
5:55 AM 64.4 °F - 60.8 °F 88% 30.04 in 10.0 mi NE 4.6 mph - N/A   Clear
6:15 AM 64.4 °F - 59.0 °F 83% 30.04 in 10.0 mi NE 3.5 mph - N/A   Mostly Cloudy
6:35 AM 64.4 °F - 60.8 °F 88% 30.05 in 10.0 mi NE 5.8 mph - N/A   Overcast
6:47 AM 66.2 °F - 60.8 °F 83% 30.05 in 10.0 mi NE 5.8 mph - N/A   Overcast
7:47 AM 66.2 °F - 62.6 °F 88% 30.07 in 10.0 mi NE 5.8 mph - N/A   Scattered Clouds
8:47 AM 69.8 °F - 60.8 °F 73% 30.09 in 10.0 mi NE 5.8 mph - N/A   Scattered Clouds
9:47 AM 73.4 °F - 60.8 °F 65% 30.09 in 10.0 mi ENE 5.8 mph - N/A   Scattered Clouds
10:47 AM 75.2 °F - 59.0 °F 57% 30.10 in 10.0 mi ESE 4.6 mph - N/A   Clear
11:47 AM 78.8 °F - 59.0 °F 51% 30.09 in 10.0 mi ESE 4.6 mph - N/A   Clear
12:47 PM 80.6 °F 80.8 °F 57.2 °F 45% 30.08 in 10.0 mi ESE 4.6 mph - N/A   Clear
3:47 PM 82.4 °F 82.9 °F 60.8 °F 48% 30.02 in 10.0 mi South 6.9 mph - N/A   Scattered Clouds
4:47 PM 82.4 °F 82.9 °F 60.8 °F 48% 30.00 in 10.0 mi WSW 6.9 mph - N/A   Scattered Clouds
5:47 PM 82.4 °F 82.9 °F 60.8 °F 48% 30.00 in 10.0 mi WSW 5.8 mph - N/A   Scattered Clouds
6:47 PM 82.4 °F 82.9 °F 60.8 °F 48% 30.00 in 10.0 mi WSW 5.8 mph - N/A   Clear
7:47 PM 77.0 °F - 64.4 °F 65% 30.00 in 10.0 mi WSW 5.8 mph - N/A   Clear
8:47 PM 73.4 °F - 62.6 °F 69% 30.01 in 10.0 mi WSW 3.5 mph - N/A   Clear
8:55 PM 73.4 °F - 60.8 °F 65% 30.01 in 10.0 mi Calm Calm - N/A   Clear
9:15 PM 71.6 °F - 62.6 °F 73% 30.01 in 10.0 mi SW 3.5 mph - N/A   Clear
9:35 PM 71.6 °F - 62.6 °F 73% 30.02 in 10.0 mi Calm Calm - N/A   Clear
9:55 PM 71.6 °F - 62.6 °F 73% 30.03 in 10.0 mi Calm Calm - N/A   Clear
10:15 PM 71.6 °F - 62.6 °F 73% 30.04 in 10.0 mi Calm Calm - N/A   Clear
10:35 PM 71.6 °F - 60.8 °F 69% 30.04 in 10.0 mi Calm Calm - N/A   Clear
10:55 PM 73.4 °F - 62.6 °F 69% 30.04 in 10.0 mi Calm Calm - N/A   Scattered Clouds
11:15 PM 73.4 °F - 62.6 °F 69% 30.04 in 10.0 mi Calm Calm - N/A   Mostly Cloudy
11:35 PM 71.6 °F - 64.4 °F 78% 30.05 in 10.0 mi Calm Calm - N/A   Overcast
11:55 PM 71.6 °F - 64.4 °F 78% 30.05 in 10.0 mi Calm Calm - N/A   Overcast